[[{"header":{"parameterUnit":"m.s-1","parameterCategory":1,"la1":30.2991,"la2":30.254,"lo1":-89.0895,"lo2":-89.0444,"dy":0.0017,"dx":0.0017,"nx":28,"ny":28,"refTime":"2025-04-04T09:00:00:Z","depth":0,"parameterNumber":2,"parameterNumberName":"U-component_of_WINDS"},"data":[0,0,0,0,0,0,0,0,0,0,0,0,0,0,0,0,0,0,0,0,0,0,0,0,0,0,0,0,0,0,0,0,0,0,0,0,0,0,0,0,0,0,0,0,0,0,0,0,0,0,0,0,0,0,0,0,0,0,-3.1142,-3.1144,0,-3.1316,-3.1318,-3.132,-3.1385,-3.1385,-3.1384,-3.1384,-3.1558,-3.1563,-3.1568,0,0,0,0,0,0,0,0,0,0,0,0,0,-3.0864,-3.0869,-3.1142,-3.1144,-3.1146,-3.1315,-3.1318,-3.132,-3.1385,-3.1385,-3.1384,-3.1383,-3.1556,-3.1562,-3.1568,0,0,0,0,0,0,0,0,0,0,0,0,0,-3.1006,-3.087,-3.1141,-3.1199,-3.1206,-3.1315,-3.1318,-3.1321,-3.1385,-3.1385,-3.1384,-3.1383,-3.1554,-3.1562,-3.1569,-3.1632,0,0,-3.1593,-3.1596,0,0,0,0,0,0,0,0,-3.0998,-3.1016,-3.1189,-3.1195,-3.1203,-3.1328,-3.1284,-3.1425,-3.1386,-3.1317,-3.1384,-3.1383,-3.1482,-3.1495,-3.153,-3.1641,-3.1648,-3.1593,-3.1598,-3.1601,-3.1604,0,0,0,0,0,0,0,-3.0988,-3.1009,-3.1211,-3.1191,-3.12,-3.1216,-3.1235,-3.1311,-3.1402,-3.1323,-3.1328,-3.1348,-3.1486,-3.1522,-3.1534,-3.1651,-3.1593,-3.16,-3.1605,-3.1608,-3.1823,-3.1824,0,0,0,0,0,0,-3.0969,-3.1,-3.1205,-3.1216,-3.1097,-3.1221,-3.1243,-3.1289,-3.1401,-3.1417,-3.1349,-3.135,-3.1509,-3.1525,-3.1541,-3.1622,-3.1601,-3.1609,-3.1613,-3.1822,-3.1823,-3.1824,0,0,0,0,0,0,-3.0962,-3.0986,-3.1198,-3.111,-3.1138,-3.1227,-3.1278,-3.1293,-3.1329,-3.142,-3.1437,-3.1369,-3.1509,-3.153,-3.161,-3.1629,-3.1612,-3.1619,-3.182,-3.1822,-3.1824,-3.1785,0,0,0,0,0,0,-3.0954,-3.0984,-3.1009,-3.111,-3.1142,-3.1265,-3.1279,-3.1297,-3.1343,-3.1347,-3.1444,-3.1459,-3.151,-3.1598,-3.1617,-3.1639,-3.1625,-3.1819,-3.1821,-3.1823,-3.1785,-3.1786,-3.1786,0,0,0,0,0,-3.0944,-3.0991,-3.101,-3.1034,-3.1176,-3.1266,-3.1284,-3.1343,-3.1344,-3.137,-3.1429,-3.1456,-3.1624,-3.1605,-3.1628,-3.1653,-3.1818,-3.1821,-3.1823,-3.1785,-3.1786,-3.1786,0,0,0,0,0,0,-3.0889,-3.1005,-3.1028,-3.1108,-3.1177,-3.1277,-3.1311,-3.1341,-3.141,-3.1411,-3.148,-3.1501,-3.1575,-3.1622,-3.1599,-3.172,-3.1723,-3.173,-3.1686,-3.1688,-3.1688,-3.1674,-3.1631,0,0,0,0,0,-3.0886,-3.095,-3.1048,-3.111,-3.1143,-3.1221,-3.1262,-3.1302,-3.1375,-3.1404,-3.1469,-3.1538,-3.1606,-3.165,-3.1718,-3.1793,-3.1815,-3.1821,-3.1821,-3.1821,-3.1826,-3.1869,-3.1873,-3.1832,-3.1832,-3.1832,0,0,-3.0881,-3.0952,-3.0988,-3.11,-3.1158,-3.1222,-3.1245,-3.1312,-3.136,-3.1414,-3.1493,-3.1543,-3.1625,-3.1703,-3.174,-3.1744,-3.1842,-3.1824,-3.1823,-3.1829,-3.1872,-3.1876,-3.1879,-3.1834,-3.1834,-3.1833,0,0,-3.0904,-3.0965,-3.1023,-3.1081,-3.1169,-3.1221,-3.1234,-3.133,-3.1366,-3.1447,-3.1489,-3.1547,-3.1663,-3.172,-3.1764,-3.181,-3.1838,-3.183,-3.1831,-3.1872,-3.1875,-3.1879,-3.1895,-3.19,-3.1835,-3.1835,-3.1835,0,-3.0887,-3.0986,-3.1049,-3.1114,-3.1162,-3.1216,-3.1275,-3.1327,-3.1432,-3.1463,-3.1467,-3.1614,-3.1673,-3.1765,-3.1776,-3.181,-3.1828,-3.1819,-3.187,-3.1874,-3.1878,-3.1894,-3.19,-3.1833,-3.1833,-3.1834,-3.1834,0,-3.096,-3.1028,-3.1064,-3.1165,-3.1217,-3.1279,-3.1351,-3.1396,-3.1431,-3.1482,-3.1564,-3.1637,-3.1721,-3.1746,-3.178,-3.1843,-3.1842,-3.1857,-3.1861,-3.1879,-3.1895,-3.1902,-3.1831,-3.1832,-3.1832,-3.1832,0,0,-3.0952,-3.1088,-3.1101,-3.1147,-3.1248,-3.1302,-3.1366,-3.1449,-3.1486,-3.1557,-3.1612,-3.171,-3.1724,-3.1774,-3.1815,-3.1852,-3.1883,-3.1862,-3.1865,-3.1863,-3.1957,-3.1945,-3.1951,-3.1903,-3.1904,-3.1906,-3.195,0,-3.0989,-3.1106,-3.1166,-3.1257,-3.1321,-3.1373,-3.1429,-3.1496,-3.1546,-3.1606,-3.1661,-3.1729,-3.1744,-3.1774,-3.1813,-3.1871,-3.1903,-3.1869,-3.1954,-3.1956,-3.1931,-3.1959,-3.1947,-3.1985,-3.1957,-3.1958,-3.1959,0,-3.1047,-3.1118,-3.1217,-3.1311,-3.134,-3.1389,-3.147,-3.1528,-3.1605,-3.1639,-3.1695,-3.1736,-3.1804,-3.1804,-3.1899,-3.1875,-3.1913,-3.1948,-3.195,-3.196,-3.1958,-3.1969,-3.1999,-3.2004,-3.1969,-3.1968,-3.1968,0,-3.1031,-3.1152,-3.1227,-3.1265,-3.1377,-3.141,-3.1458,-3.1535,-3.1581,-3.1652,-3.1683,-3.176,-3.1802,-3.1861,-3.1921,-3.1915,-3.201,-3.2015,-3.204,-3.2038,-3.2056,-3.2054,-3.2092,-3.2082,-3.2082,-3.2082,-3.2082,0,-3.1065,-3.1123,-3.1221,-3.1267,-3.1333,-3.1401,-3.1464,-3.1516,-3.1584,-3.1641,-3.169,-3.1742,-3.1819,-3.188,-3.1927,-3.1999,-3.2017,-3.2046,-3.2058,-3.2041,-3.2037,-3.2067,-3.2065,-3.2083,-3.2083,-3.2083,-3.2082,0,-3.1059,-3.1127,-3.1212,-3.1311,-3.1337,-3.1382,-3.1466,-3.1512,-3.1565,-3.1636,-3.1656,-3.1738,-3.1813,-3.1879,-3.1977,-3.2009,-3.2082,-3.2097,-3.2056,-3.2062,-3.2083,-3.208,-3.214,-3.2151,-3.2133,-3.2134,-3.2134,0,-3.1076,-3.1122,-3.1227,-3.1269,-3.1316,-3.1382,-3.143,-3.1498,-3.1546,-3.1638,-3.1673,-3.1752,-3.1818,-3.1934,-3.2002,-3.2078,-3.2095,-3.2111,-3.2106,-3.2088,-3.2094,-3.2091,-3.2096,-3.211,-3.211,-3.2109,-3.2109,0,-3.1099,-3.1131,-3.1199,-3.1278,-3.1335,-3.14,-3.1467,-3.1498,-3.1579,-3.163,-3.1708,-3.1759,-3.186,-3.1937,-3.202,-3.2069,-3.2102,-3.211,-3.212,-3.2103,-3.2078,-3.2092,-3.2055,-3.2108,-3.2109,-3.2109,-3.2109,-3.2109,-3.1106,-3.1149,-3.1229,-3.1303,-3.1361,-3.1423,-3.1471,-3.153,-3.1597,-3.1685,-3.1721,-3.1799,-3.1876,-3.1992,-3.204,-3.2102,-3.2108,-3.2122,-3.2126,-3.2128,-3.2125,-3.2068,-3.2117,-3.2118,-3.2118,-3.2118,-3.2118,0,-3.1131,-3.1186,-3.1253,-3.1346,-3.1404,-3.1432,-3.1508,-3.1554,-3.1623,-3.1692,-3.1757,-3.1846,-3.1921,-3.1995,-3.2074,-3.2109,-3.2127,-3.2128,-3.2125,-3.2136,-3.2115,-3.2099,-3.2112,-3.2112,-3.2112,-3.2112,-3.2112,-3.2112,-3.1151,-3.1227,-3.1268,-3.1372,-3.1426,-3.1504,-3.1545,-3.1602,-3.1658,-3.1755,-3.1818,-3.1866,-3.1938,-3.2022,-3.2092,-3.2112,-3.2139,-3.2135,-3.2159,-3.2138,-3.2137,-3.2137,-3.2122,-3.2141,-3.2141,-3.2175,-3.2176,-3.2176]},{"header":{"parameterUnit":"m.s-1","parameterCategory":1,"la1":30.2991,"la2":30.254,"lo1":-89.0895,"lo2":-89.0444,"dy":0.0017,"dx":0.0017,"nx":28,"ny":28,"refTime":"2025-04-04T09:00:00:Z","depth":0,"parameterNumber":3,"parameterNumberName":"V-component_of_WINDS"},"data":[0,0,0,0,0,0,0,0,0,0,0,0,0,0,0,0,0,0,0,0,0,0,0,0,0,0,0,0,0,0,0,0,0,0,0,0,0,0,0,0,0,0,0,0,0,0,0,0,0,0,0,0,0,0,0,0,0,0,7.1533,7.1536,0,7.178,7.1783,7.1786,7.1816,7.1814,7.1811,7.1809,7.2063,7.2072,7.2081,0,0,0,0,0,0,0,0,0,0,0,0,0,7.1092,7.11,7.1533,7.1536,7.1539,7.178,7.1783,7.1786,7.1817,7.1814,7.1811,7.1808,7.206,7.2071,7.2082,0,0,0,0,0,0,0,0,0,0,0,0,0,7.1306,7.1103,7.1533,7.1583,7.159,7.1779,7.1783,7.1787,7.1817,7.1814,7.181,7.1807,7.2057,7.207,7.2083,7.2238,0,0,7.2124,7.213,0,0,0,0,0,0,0,0,7.1294,7.1322,7.1573,7.158,7.1588,7.1764,7.1721,7.1939,7.1818,7.1731,7.1809,7.1805,7.1967,7.1987,7.2041,7.225,7.2261,7.2126,7.2134,7.214,7.2143,0,0,0,0,0,0,0,7.1279,7.1312,7.1631,7.1576,7.1586,7.1595,7.1621,7.1762,7.1866,7.1738,7.1741,7.177,7.197,7.2028,7.2048,7.2265,7.2125,7.2137,7.2145,7.2151,7.2618,7.2622,0,0,0,0,0,0,7.1254,7.1299,7.1623,7.1638,7.1429,7.1606,7.1635,7.1711,7.1865,7.1885,7.1773,7.177,7.2007,7.2032,7.2057,7.2252,7.2139,7.2152,7.216,7.2614,7.2619,7.2624,0,0,0,0,0,0,7.1245,7.1283,7.1613,7.147,7.1512,7.1617,7.1702,7.1718,7.1776,7.1891,7.1909,7.1813,7.2005,7.2038,7.2194,7.2261,7.2158,7.217,7.2609,7.2615,7.2621,7.264,0,0,0,0,0,0,7.1232,7.1279,7.1338,7.1471,7.152,7.1745,7.1706,7.1725,7.1799,7.1798,7.1933,7.1952,7.2005,7.2174,7.2207,7.2277,7.2181,7.2603,7.2612,7.2619,7.2634,7.2647,7.2657,0,0,0,0,0,7.1216,7.1333,7.1341,7.138,7.1596,7.1749,7.1777,7.1835,7.1804,7.1866,7.194,7.1948,7.2248,7.2189,7.2228,7.2303,7.2599,7.2609,7.2619,7.2629,7.2644,7.2657,0,0,0,0,0,0,7.1206,7.1351,7.1362,7.1525,7.1624,7.1753,7.1832,7.1848,7.1959,7.1954,7.2021,7.2052,7.2206,7.227,7.2202,7.2463,7.2421,7.2439,7.2416,7.2431,7.2442,7.2424,7.2192,0,0,0,0,0,7.1222,7.1333,7.1455,7.1588,7.1637,7.1726,7.1795,7.1831,7.1937,7.1979,7.2065,7.2168,7.2286,7.2362,7.2476,7.2644,7.2675,7.2714,7.2726,7.2735,7.275,7.2847,7.2867,7.2656,7.2656,7.2655,0,0,7.1258,7.1351,7.1417,7.1588,7.1669,7.1785,7.1761,7.1883,7.197,7.1998,7.2151,7.2218,7.2338,7.2501,7.2577,7.2559,7.2815,7.2747,7.2753,7.2764,7.2859,7.2879,7.2896,7.2662,7.2661,7.266,0,0,7.1382,7.1463,7.1584,7.1666,7.179,7.1849,7.1878,7.2006,7.2051,7.2206,7.223,7.2335,7.2536,7.2621,7.2691,7.2851,7.2864,7.2886,7.2947,7.3041,7.3057,7.3072,7.3132,7.3153,7.2901,7.2901,7.2901,0,7.1411,7.1585,7.1644,7.1767,7.1842,7.1873,7.1997,7.2074,7.2229,7.2281,7.2259,7.2514,7.2596,7.2782,7.2821,7.2876,7.2913,7.2871,7.305,7.3066,7.3081,7.3139,7.3161,7.2903,7.2903,7.2902,7.2902,0,7.1616,7.1736,7.1819,7.1969,7.2054,7.2176,7.2255,7.2335,7.2364,7.2426,7.2585,7.2686,7.2823,7.2869,7.2899,7.3061,7.3046,7.3036,7.2995,7.3102,7.3158,7.318,7.2906,7.2905,7.2904,7.2904,0,0,7.174,7.1922,7.1951,7.2021,7.2161,7.2256,7.2381,7.2516,7.2584,7.269,7.2798,7.2969,7.2962,7.3041,7.308,7.3162,7.3287,7.3143,7.3147,7.3168,7.3475,7.3483,7.3507,7.3296,7.33,7.3304,7.3466,0,7.1882,7.2105,7.2163,7.2354,7.2468,7.25,7.261,7.2709,7.2771,7.2878,7.2946,7.3067,7.3047,7.3095,7.3178,7.3254,7.3349,7.3243,7.34,7.3404,7.337,7.3536,7.3544,7.3692,7.3487,7.3491,7.3494,0,7.2077,7.2189,7.2391,7.2519,7.2569,7.2666,7.2796,7.2897,7.3011,7.305,7.314,7.3173,7.3307,7.3258,7.3446,7.3372,7.344,7.3487,7.3495,7.3513,7.3456,7.3561,7.374,7.3763,7.3528,7.3525,7.3523,0,7.2151,7.2351,7.2499,7.2557,7.271,7.2778,7.2845,7.2955,7.3033,7.3146,7.3198,7.3326,7.3396,7.3495,7.3562,7.352,7.3745,7.3701,7.3784,7.3782,7.383,7.3827,7.4025,7.3871,7.387,7.387,7.3869,0,7.2304,7.2428,7.2534,7.2625,7.2765,7.2832,7.2969,7.3037,7.3135,7.3242,7.3277,7.3377,7.3458,7.357,7.3623,7.3772,7.3803,7.384,7.3853,7.3838,7.3834,7.3885,7.3877,7.3876,7.3875,7.3873,7.3872,0,7.241,7.2486,7.265,7.2781,7.2818,7.2915,7.3029,7.312,7.3183,7.3318,7.3353,7.3454,7.3587,7.3663,7.3831,7.3867,7.4033,7.404,7.3995,7.4001,7.408,7.4073,7.432,7.4357,7.4175,7.4177,7.4178,0,7.2504,7.26,7.2742,7.2816,7.2884,7.3002,7.3082,7.3152,7.3235,7.3374,7.3448,7.3584,7.3696,7.3907,7.3996,7.4125,7.4137,7.4215,7.4157,7.414,7.4142,7.4136,7.4147,7.4225,7.4227,7.4228,7.4229,0,7.2664,7.2697,7.2811,7.294,7.3035,7.3139,7.3243,7.3301,7.3389,7.348,7.3617,7.3704,7.3876,7.4011,7.4148,7.4219,7.4241,7.4247,7.4274,7.426,7.4231,7.425,7.4024,7.4241,7.424,7.4239,7.4239,7.4238,7.2769,7.2856,7.2971,7.3098,7.3184,7.328,7.3373,7.3449,7.3564,7.3709,7.3744,7.3889,7.4003,7.419,7.4264,7.438,7.4366,7.4404,7.4414,7.4422,7.4426,7.4211,7.4404,7.4404,7.4404,7.4404,7.4404,0,7.2932,7.3008,7.3124,7.3269,7.3369,7.338,7.3496,7.358,7.3707,7.3811,7.3922,7.408,7.4212,7.4312,7.4448,7.4521,7.4535,7.4555,7.4551,7.4568,7.4429,7.4394,7.4542,7.4542,7.4542,7.4542,7.4541,7.4541,7.303,7.318,7.3227,7.3422,7.3497,7.3639,7.3705,7.3796,7.388,7.4056,7.4165,7.4229,7.4334,7.4477,7.46,7.4626,7.4675,7.4694,7.4722,7.4592,7.4577,7.4563,7.453,7.4704,7.4704,7.4852,7.4853,7.4854]}]]